Mount Pleasant, MI

5:19 AM EDT on May 29, 2017 (GMT -0400)
Mount Pleasant Municipal

Weather History for KMOP - December, 2012

Change the Weather History Date:

Sunday, December 9, 2012

  Actual Average (KAMN) Record (KAMN)
Temperature  
Mean Temperature 30 °F -  
Max Temperature 33 °F 35 °F 57 °F (1952)
Min Temperature 26 °F 22 °F -2 °F (1958)
Degree Days  
Heating Degree Days 36    
Moisture  
Dew Point 27 °F    
Average Humidity 88    
Maximum Humidity 96    
Minimum Humidity 78    
Precipitation  
Precipitation 0.00 in - - ()
Sea Level Pressure  
Sea Level Pressure 29.99 in    
Wind  
Wind Speed 5 mph (ENE)    
Max Wind Speed 20 mph    
Max Gust Speed 29 mph    
Visibility 7 miles    
Events Snow    
Averages and records for this station are not official NWS values.
T = Trace of Precipitation, MM = Missing Value Source: NWS Daily Summary

Daily Weather History Graph

Daily Weather History Graph

Search for Another Location

Airport or City:

Trip Planner

Search our weather history database for the weather conditions in past years. The results will help you decide how hot, cold, wet, or windy it might be!

Date:

Astronomy

Dec. 09, 2012 Rise Set
Actual Time 8:00 AM EST 5:02 PM EST
Civil Twilight 7:28 AM EST 5:34 PM EST
Nautical Twilight 6:52 AM EST 6:10 PM EST
Astronomical Twilight 6:17 AM EST 6:45 PM EST
Moon 3:27 AM EST (12/9) 2:13 PM EST (12/9)
Length of Visible Light 10h 06m
Length of Day
9h 01m
Waning Crescent, 19% of the Moon is Illuminated
Dec 9
Waning Crescent
Dec 13
New
Dec 20
First Quarter
Dec 28
Full
Jan 4
Last Quarter

Hourly Weather History & Observations

Time (EST) Temp. Windchill Dew Point Humidity Pressure Visibility Wind Dir Wind Speed Gust Speed Precip Events Conditions
12:15 AM 28.4 °F - 23.7 °F 83% 30.18 in 10.0 mi Calm Calm - N/A   Clear
12:35 AM 26.8 °F - 23.4 °F 87% 30.18 in 10.0 mi Calm Calm - N/A   Clear
12:55 AM 27.0 °F - 23.9 °F 88% 30.19 in 10.0 mi Calm Calm - N/A   Clear
1:15 AM 27.1 °F - 24.1 °F 88% 30.18 in 10.0 mi Calm Calm - N/A   Clear
1:35 AM 26.4 °F - 24.4 °F 92% 30.19 in 10.0 mi Calm Calm - N/A   Mostly Cloudy
1:55 AM 27.1 °F - 24.8 °F 91% 30.19 in 10.0 mi Calm Calm - N/A   Overcast
2:15 AM 26.6 °F - 24.8 °F 93% 30.19 in 10.0 mi Calm Calm - N/A   Scattered Clouds
2:35 AM 27.5 °F - 25.5 °F 92% 30.18 in 10.0 mi Calm Calm - N/A   Clear
2:55 AM 27.1 °F - 24.8 °F 91% 30.18 in 10.0 mi Calm Calm - N/A   Clear
3:15 AM 27.5 °F - 24.6 °F 89% 30.18 in 10.0 mi Calm Calm - N/A   Clear
3:35 AM 27.5 °F 23.6 °F 24.6 °F 89% 30.18 in 10.0 mi NNE 3.5 mph - N/A   Clear
3:55 AM 28.4 °F 23.3 °F 24.6 °F 86% 30.18 in 10.0 mi NE 4.6 mph - N/A   Clear
4:15 AM 28.4 °F 23.3 °F 24.4 °F 85% 30.17 in 10.0 mi ENE 4.6 mph - N/A   Scattered Clouds
4:35 AM 28.8 °F 23.7 °F 24.1 °F 83% 30.16 in 10.0 mi ENE 4.6 mph - N/A   Mostly Cloudy
4:55 AM 28.9 °F 25.2 °F 23.9 °F 81% 30.16 in 10.0 mi NE 3.5 mph - N/A   Overcast
5:15 AM 28.9 °F 25.2 °F 23.5 °F 80% 30.16 in 10.0 mi NE 3.5 mph - N/A   Overcast
5:35 AM 29.1 °F 25.4 °F 23.5 °F 80% 30.17 in 10.0 mi NE 3.5 mph - N/A   Overcast
5:55 AM 28.8 °F 25.0 °F 23.5 °F 81% 30.17 in 10.0 mi NE 3.5 mph - N/A   Overcast
6:15 AM 28.8 °F - 23.4 °F 80% 30.18 in 10.0 mi Calm Calm - N/A   Overcast
6:55 AM 28.6 °F 23.5 °F 23.0 °F 80% 30.16 in 10.0 mi NE 4.6 mph - N/A   Overcast
7:15 AM 28.8 °F 22.6 °F 23.0 °F 79% 30.15 in 10.0 mi ENE 5.8 mph - N/A   Scattered Clouds
7:35 AM 28.9 °F 20.4 °F 23.0 °F 78% 30.13 in 10.0 mi East 9.2 mph - N/A   Clear
7:55 AM 29.1 °F 21.3 °F 23.0 °F 78% 30.13 in 10.0 mi East 8.1 mph - N/A   Scattered Clouds
8:15 AM 29.3 °F 22.3 °F 23.5 °F 79% 30.14 in 10.0 mi ENE 6.9 mph - N/A   Mostly Cloudy
8:35 AM 29.3 °F 23.2 °F 23.9 °F 80% 30.13 in 10.0 mi ENE 5.8 mph - N/A   Overcast
8:55 AM 29.8 °F 22.2 °F 24.3 °F 80% 30.13 in 10.0 mi ENE 8.1 mph - N/A   Overcast
9:15 AM 30.2 °F 23.4 °F 25.2 °F 82% 30.13 in 10.0 mi ENE 6.9 mph - N/A   Overcast
9:35 AM 30.7 °F 24.1 °F 25.7 °F 82% 30.13 in 10.0 mi East 6.9 mph - N/A   Overcast
9:55 AM 31.1 °F 24.5 °F 26.4 °F 83% 30.12 in 10.0 mi ENE 6.9 mph - N/A   Overcast
10:15 AM 31.6 °F 24.4 °F 27.1 °F 83% 30.12 in 10.0 mi ENE 8.1 mph - N/A   Overcast
10:35 AM 32.0 °F 24.8 °F 27.7 °F 84% 30.11 in 10.0 mi ENE 8.1 mph - N/A   Overcast
10:55 AM 32.0 °F 23.6 °F 28.2 °F 86% 30.10 in 10.0 mi East 10.4 mph - N/A   Overcast
11:15 AM 32.5 °F 23.7 °F 28.4 °F 85% 30.09 in 10.0 mi East 11.5 mph - N/A   Overcast
11:35 AM 32.9 °F 24.1 °F 28.8 °F 85% 30.07 in 10.0 mi East 11.5 mph 16.1 mph N/A   Overcast
11:54 AM 32.9 °F 25.3 °F 29.1 °F 86% 30.06 in 10.0 mi ENE 9.2 mph - N/A   Overcast
12:15 PM 33.3 °F 25.1 °F 29.1 °F 85% 30.04 in 10.0 mi ENE 10.4 mph 20.7 mph N/A   Overcast
12:35 PM 33.4 °F 24.3 °F 28.8 °F 83% 30.03 in 10.0 mi ENE 12.7 mph 18.4 mph N/A   Overcast
1:15 PM 33.1 °F 23.0 °F 28.8 °F 84% 29.99 in 10.0 mi ENE 15.0 mph 18.4 mph N/A   Overcast
1:35 PM 32.9 °F 22.8 °F 28.8 °F 85% 29.98 in 10.0 mi ENE 15.0 mph 21.9 mph N/A   Overcast
1:54 PM 32.5 °F 22.3 °F 28.8 °F 86% 29.96 in 5.0 mi ENE 15.0 mph 20.7 mph N/A Snow Light Snow
2:15 PM 32.0 °F 22.1 °F 28.9 °F 88% 29.94 in 1.8 mi ENE 13.8 mph 21.9 mph N/A Snow Light Snow
2:35 PM 32.0 °F 21.6 °F 28.8 °F 88% 29.93 in 1.2 mi ENE 15.0 mph - N/A Snow Light Snow
2:55 PM 31.1 °F 20.9 °F 28.9 °F 92% 29.92 in 0.5 mi ENE 13.8 mph 19.6 mph N/A Snow Snow
3:15 PM 30.9 °F 21.2 °F 28.8 °F 92% 29.90 in 0.5 mi ENE 12.7 mph 18.4 mph N/A Snow Snow
3:35 PM 30.7 °F 20.0 °F 28.8 °F 92% 29.89 in 0.2 mi ENE 15.0 mph 19.6 mph N/A Snow Light Snow
3:55 PM 30.9 °F 18.7 °F 28.6 °F 91% 29.87 in 0.5 mi ENE 19.6 mph 28.8 mph N/A Snow Light Snow
4:15 PM 30.9 °F 20.2 °F 28.4 °F 90% 29.88 in 1.8 mi ENE 15.0 mph 23.0 mph N/A Snow Light Snow
4:35 PM 30.9 °F 21.2 °F 28.4 °F 90% 29.88 in 0.8 mi East 12.7 mph 19.6 mph N/A Snow Light Snow
4:55 PM 30.9 °F 22.8 °F 28.4 °F 90% 29.88 in 1.8 mi East 9.2 mph 18.4 mph N/A Snow Light Snow
5:15 PM 30.7 °F 24.1 °F 28.9 °F 93% 29.87 in 1.0 mi East 6.9 mph - N/A Snow Light Snow
5:35 PM 30.9 °F 20.7 °F 28.4 °F 90% 29.87 in 3.0 mi East 13.8 mph 18.4 mph N/A Snow Light Snow
5:55 PM 30.6 °F 21.8 °F 28.2 °F 91% 29.86 in 2.0 mi ENE 10.4 mph - N/A Snow Light Snow
6:15 PM 30.2 °F 21.3 °F 27.9 °F 91% 29.85 in 3.0 mi East 10.4 mph 18.4 mph N/A   Overcast
6:35 PM 30.2 °F 21.3 °F 27.7 °F 90% 29.83 in 5.0 mi ENE 10.4 mph - N/A   Overcast
6:55 PM 30.2 °F 22.6 °F 27.9 °F 91% 29.82 in 3.0 mi ENE 8.1 mph 19.6 mph N/A   Overcast
7:15 PM 30.2 °F 21.3 °F 28.0 °F 92% 29.81 in 3.0 mi ENE 10.4 mph 16.1 mph N/A Snow Light Snow
7:35 PM 30.2 °F 21.9 °F 28.2 °F 92% 29.80 in 3.0 mi ENE 9.2 mph - N/A   Overcast
7:55 PM 30.2 °F 21.3 °F 28.2 °F 92% 29.78 in 3.0 mi ENE 10.4 mph - N/A   Overcast
8:15 PM 30.2 °F 21.9 °F 28.2 °F 92% 29.77 in 4.0 mi ENE 9.2 mph - N/A   Overcast
8:34 PM 30.0 °F 22.4 °F 27.9 °F 92% 29.76 in 7.0 mi NE 8.1 mph - N/A   Overcast
8:55 PM 30.0 °F 21.7 °F 28.0 °F 92% 29.74 in 7.0 mi NE 9.2 mph - N/A   Overcast
9:15 PM 30.2 °F 26.7 °F 28.2 °F 92% 29.74 in 5.0 mi ENE 3.5 mph - N/A   Overcast
9:34 PM 30.2 °F 25.4 °F 28.4 °F 93% 29.73 in 5.0 mi ENE 4.6 mph - N/A   Overcast
9:55 PM 30.2 °F - 28.6 °F 94% 29.72 in 4.0 mi Calm Calm - N/A   Overcast
10:15 PM 30.2 °F - 28.9 °F 95% 29.71 in 3.0 mi Calm Calm - N/A   Overcast
10:34 PM 30.2 °F - 29.1 °F 96% 29.70 in 3.0 mi Calm Calm - N/A   Overcast
10:55 PM 30.6 °F 27.1 °F 29.3 °F 95% 29.68 in 2.5 mi NNE 3.5 mph - N/A   Overcast
11:15 PM 30.7 °F - 29.3 °F 94% 29.67 in 2.5 mi Calm Calm - N/A   Overcast
11:34 PM 30.7 °F - 29.7 °F 96% 29.66 in 2.5 mi Calm Calm - N/A   Overcast
11:55 PM 31.3 °F - 30.0 °F 95% 29.66 in 2.0 mi Calm Calm - N/A   Overcast